Regional Weather Roundup
Issued by NWS Nashville, TN

Current Version | Previous Version | Text Only | Print | Product List | Glossary Off
Versions: 1 2 3 4 5 6 7 8 9 10 11 12 13 14 15 16 17 18 19 20 21 22 23 24 25 26 27 28 29 30 31 32 33 34 35 36 37 38 39 40 41 42 43 44 45 46 47 48 49

000
ASUS44 KOHX 290610
RWROHX
MIDDLE TENNESSEE HOURLY WEATHER ROUNDUP
NATIONAL WEATHER SERVICE NASHVILLE TN
100 AM CDT WED JUL 29 2015

NOTE: "FAIR" INDICATES FEW OR NO CLOUDS BELOW 12,000 FEET WITH
NO SIGNIFICANT WEATHER AND/OR OBSTRUCTIONS TO VISIBILITY.

* THESE REPORTS ARE NOT UNDER NWS QUALITY CONTROL AND MAY NOT
  REPORT WEATHER SUCH AS PRECIPITATION AND FOG.


TNZ005>011-023>034-057-059-062>066-078-080-290700
...NORTHERN MIDDLE TENNESSEE...

CITY           SKY/WX    TMP DP  RH WIND       PRES   REMARKS
CLARKSVILLE    CLOUDY    73  72  96 CALM      29.99F
CROSSVILLE     MOCLDY    73  68  84 NW5       30.08F
DICKSON        CLOUDY    72  72 100 CALM      30.01F
NASHVILLE      CLOUDY    75  75 100 CALM      30.01R
ROCKWOOD       MOCLDY    73  69  87 N6        30.06
SMYRNA         CLOUDY    75  74  97 CALM      30.02R
$$
TNZ056-058-060-061-075>077-079-093>097-290700
...SOUTHERN MIDDLE TENNESSEE...

CITY           SKY/WX    TMP DP  RH WIND       PRES   REMARKS
LEWISBURG      CLOUDY    75  74  97 CALM      30.00F
MCMINNVILLE    PTCLDY    73  73 100 CALM      30.03F
SHELBYVILLE    CLEAR     75  75 100 CALM      30.01F
TULLAHOMA      CLEAR     73  72  94 CALM      30.02F
WINCHESTER     CLEAR     73  72  94 CALM      30.00F
$$


...KEY TO REMARKS...
VSB - VISIBILITY IN MILES
WCI - WIND CHILL INDEX
HX  - HEAT INDEX




USA.gov is the U.S. government's official web portal to all federal, state and local government web resources and services.